Weather History for Colorado City, AZ

Change the Weather History Date:

Wednesday, May 28, 2014

  Actual Average (KCDC) Record (KCDC)
Temperature  
Mean Temperature 73 °F 59 °F  
Max Temperature 93 °F 77 °F 95 °F (1984)
Min Temperature 53 °F 42 °F 29 °F (2006)
Degree Days  
Heating Degree Days 0 6  
Month to date heating degree days 274  
Since 1 July heating degree days 6160  
Cooling Degree Days 8 1  
Month to date cooling degree days 2  
Year to date cooling degree days 2  
Growing Degree Days 23 (Base 50)    
Moisture  
Dew Point 31 °F    
Average Humidity 23    
Maximum Humidity 48    
Minimum Humidity 9    
Precipitation  
Precipitation 0.00 in 0.03 in 0.26 in (1956)
Month to date precipitation 0.70  
Year to date precipitation 4.97  
Sea Level Pressure  
Sea Level Pressure 30.04 in    
Wind  
Wind Speed 6 mph (South)    
Max Wind Speed 22 mph    
Max Gust Speed 31 mph    
Visibility 10 miles    
Events      
T = Trace of Precipitation, MM = Missing Value Source: NWS Daily Summary

Daily Weather History Graph

Daily Weather History Graph

Search for Another Location

Airport:

Trip Planner

Search our weather history database for the weather conditions in past years. The results will help you decide how hot, cold, wet, or windy it might be!

Date:

Astronomy

May. 28, 2014 Rise Set
Actual Time 5:15 AM MST 7:43 PM MST
Civil Twilight 4:45 AM MST 8:13 PM MST
Nautical Twilight 4:08 AM MST 8:50 PM MST
Astronomical Twilight 3:27 AM MST 9:31 PM MST
Moon 5:23 AM MST (5/28) 7:46 PM MST (5/28)
Length of Visible Light 15h 27m
Length of Day
14h 27m
New Moon, 0% of the Moon is Illuminated
May 28
New Moon
Jun 5
First Quarter
Jun 12
Full
Jun 19
Last Quarter
Jun 27
New

Hourly Weather History & Observations

Time (MST) Temp. Dew Point Humidity Pressure Visibility Wind Dir Wind Speed Gust Speed Precip Events Conditions
12:15 AM 62.4 °F 31.8 °F 32% 30.11 in 10.0 mi Calm Calm - N/A   Clear
12:35 AM 65.1 °F 32.2 °F 29% 30.11 in 10.0 mi Calm Calm - N/A   Clear
12:55 AM 64.0 °F 32.0 °F 30% 30.10 in 10.0 mi Calm Calm - N/A   Clear
1:15 AM 64.0 °F 32.7 °F 31% 30.09 in 10.0 mi Calm Calm - N/A   Clear
1:35 AM 62.1 °F 31.8 °F 32% 30.09 in 10.0 mi Calm Calm - N/A   Clear
2:20 AM 58.8 °F 31.6 °F 36% 30.09 in 10.0 mi ESE 4.6 mph - N/A   Clear
2:35 AM 56.7 °F 32.2 °F 40% 30.09 in 10.0 mi SE 3.5 mph - N/A   Clear
2:55 AM 54.9 °F 32.7 °F 43% 30.09 in 10.0 mi Calm Calm - N/A   Clear
3:15 AM 54.1 °F 31.8 °F 43% 30.09 in 10.0 mi ESE 4.6 mph - N/A   Clear
3:35 AM 54.0 °F 32.7 °F 45% 30.09 in 10.0 mi SE 4.6 mph - N/A   Clear
3:55 AM 54.7 °F 33.6 °F 45% 30.09 in 10.0 mi SSE 3.5 mph - N/A   Clear
4:15 AM 54.5 °F 32.7 °F 44% 30.09 in 10.0 mi Calm Calm - N/A   Clear
4:35 AM 54.5 °F 32.7 °F 44% 30.09 in 10.0 mi ESE 3.5 mph - N/A   Clear
4:55 AM 53.8 °F 34.0 °F 47% 30.09 in 10.0 mi ESE 3.5 mph - N/A   Clear
5:15 AM 53.8 °F 34.5 °F 48% 30.09 in 10.0 mi Calm Calm - N/A   Clear
5:35 AM 54.0 °F 34.3 °F 47% 30.09 in 10.0 mi Calm Calm - N/A   Clear
5:55 AM 54.3 °F 34.0 °F 46% 30.09 in 10.0 mi ESE 4.6 mph - N/A   Clear
6:15 AM 55.4 °F 34.9 °F 46% 30.10 in 10.0 mi Calm Calm - N/A   Clear
6:55 AM 62.4 °F 36.3 °F 38% 30.09 in 10.0 mi Calm Calm - N/A   Clear
7:15 AM 66.2 °F 36.7 °F 34% 30.10 in 10.0 mi Calm Calm - N/A   Clear
7:35 AM 70.9 °F 37.4 °F 29% 30.09 in 10.0 mi Calm Calm - N/A   Clear
7:55 AM 77.0 °F 36.7 °F 23% 30.09 in 10.0 mi ESE 8.1 mph - N/A   Clear
8:15 AM 81.0 °F 33.4 °F 18% 30.09 in 10.0 mi ESE 9.2 mph - N/A   Clear
8:35 AM 82.2 °F 32.7 °F 17% 30.09 in 10.0 mi SE 8.1 mph - N/A   Clear
9:15 AM 84.7 °F 31.6 °F 15% 30.09 in 10.0 mi SE 13.8 mph 17.3 mph N/A   Clear
9:35 AM 86.0 °F 31.5 °F 14% 30.08 in 10.0 mi SE 11.5 mph 16.1 mph N/A   Clear
9:55 AM 87.1 °F 30.9 °F 13% 30.08 in 10.0 mi South 12.7 mph 18.4 mph N/A   Clear
10:15 AM 87.8 °F 31.3 °F 13% 30.08 in 10.0 mi SE 13.8 mph 20.7 mph N/A   Clear
10:35 AM 89.1 °F 31.3 °F 13% 30.07 in 10.0 mi ESE 10.4 mph 16.1 mph N/A   Clear
10:55 AM 89.8 °F 31.3 °F 12% 30.06 in 10.0 mi SSE 17.3 mph 25.3 mph N/A   Clear
11:15 AM 90.1 °F 30.0 °F 12% 30.06 in 10.0 mi SSW 15.0 mph 19.6 mph N/A   Scattered Clouds
11:35 AM 92.3 °F 29.5 °F 11% 30.06 in 10.0 mi SSW 19.6 mph 25.3 mph N/A   Clear
11:55 AM 91.2 °F 28.9 °F 11% 30.06 in 10.0 mi South 12.7 mph 25.3 mph N/A   Clear
12:15 PM 90.9 °F 29.1 °F 11% 30.05 in 10.0 mi SW 17.3 mph 24.2 mph N/A   Clear
12:35 PM 90.9 °F 29.5 °F 11% 30.04 in 10.0 mi South 12.7 mph 25.3 mph N/A   Clear
12:55 PM 91.0 °F 29.8 °F 11% 30.04 in 10.0 mi SW 12.7 mph 23.0 mph N/A   Clear
1:15 PM 91.6 °F 29.7 °F 11% 30.03 in 10.0 mi SW 16.1 mph 26.5 mph N/A   Scattered Clouds
1:35 PM 91.9 °F 29.7 °F 11% 30.02 in 10.0 mi SW 11.5 mph 28.8 mph N/A   Clear
1:55 PM 92.3 °F 29.3 °F 11% 30.02 in 10.0 mi SW 17.3 mph 27.6 mph N/A   Clear
2:15 PM 92.7 °F 28.9 °F 10% 30.01 in 10.0 mi South 13.8 mph 27.6 mph N/A   Clear
2:35 PM 93.4 °F 28.6 °F 10% 30.00 in 10.0 mi South 16.1 mph 31.1 mph N/A   Clear
2:55 PM 93.2 °F 28.0 °F 10% 30.00 in 10.0 mi SSW 15.0 mph 26.5 mph N/A   Clear
3:15 PM 93.7 °F 27.9 °F 10% 29.99 in 10.0 mi WSW 13.8 mph 20.7 mph N/A   Clear
3:35 PM 93.7 °F 28.4 °F 10% 29.98 in 10.0 mi SW 19.6 mph 28.8 mph N/A   Clear
3:55 PM 93.6 °F 28.8 °F 10% 29.98 in 10.0 mi SW 21.9 mph 26.5 mph N/A   Clear
4:15 PM 93.7 °F 27.9 °F 10% 29.97 in 10.0 mi SW 19.6 mph 25.3 mph N/A   Clear
4:35 PM 93.4 °F 27.1 °F 9% 29.96 in 10.0 mi SW 12.7 mph 29.9 mph N/A   Clear
4:55 PM 92.7 °F 27.7 °F 10% 29.95 in 10.0 mi WSW 12.7 mph 19.6 mph N/A   Clear
5:15 PM 93.2 °F 28.4 °F 10% 29.94 in 10.0 mi SSW 13.8 mph 18.4 mph N/A   Clear
5:35 PM 91.4 °F 28.0 °F 10% 29.94 in 10.0 mi SSW 18.4 mph 26.5 mph N/A   Clear
5:55 PM 90.3 °F 27.9 °F 11% 29.94 in 10.0 mi West 11.5 mph 17.3 mph N/A   Clear
6:15 PM 89.1 °F 29.8 °F 12% 29.94 in 10.0 mi WNW 17.3 mph 24.2 mph N/A   Clear
6:35 PM 87.4 °F 29.7 °F 13% 29.95 in 10.0 mi WNW 13.8 mph 19.6 mph N/A   Clear
6:55 PM 85.8 °F 29.1 °F 13% 29.96 in 10.0 mi WNW 16.1 mph 23.0 mph N/A   Clear
7:15 PM 83.8 °F 28.6 °F 13% 29.97 in 10.0 mi NW 9.2 mph - N/A   Clear
7:35 PM 81.7 °F 28.0 °F 14% 29.97 in 10.0 mi WNW 11.5 mph - N/A   Clear
8:15 PM 77.9 °F 27.7 °F 16% 29.98 in 10.0 mi NNW 3.5 mph - N/A   Clear
8:35 PM 75.4 °F 29.5 °F 18% 29.98 in 10.0 mi North 3.5 mph - N/A   Clear
8:55 PM 72.7 °F 30.0 °F 21% 29.98 in 10.0 mi North 5.8 mph - N/A   Clear
9:15 PM 72.0 °F 30.2 °F 21% 30.00 in 10.0 mi Calm Calm - N/A   Clear
9:35 PM 70.9 °F 30.6 °F 22% 30.00 in 10.0 mi Calm Calm - N/A   Clear
9:55 PM 67.3 °F 30.6 °F 25% 30.00 in 10.0 mi Calm Calm - N/A   Clear
10:15 PM 66.9 °F 31.1 °F 26% 29.99 in 10.0 mi Calm Calm - N/A   Clear
10:55 PM 64.4 °F 32.0 °F 30% 30.00 in 10.0 mi East 4.6 mph - N/A   Clear
11:15 PM 64.8 °F 32.0 °F 29% 30.00 in 10.0 mi Calm Calm - N/A   Clear
11:35 PM 64.4 °F 32.0 °F 30% 30.00 in 10.0 mi Calm Calm - N/A   Clear
11:55 PM 63.0 °F 31.8 °F 31% 30.00 in 10.0 mi Calm Calm - N/A   Clear